Weather History for K1R7 - December, 2013

Change the Weather History Date:

Sunday, December 1, 2013

  Actual Average (KMCB) Record (KMCB)
Temperature  
Mean Temperature 50 °F -  
Max Temperature 66 °F 65 °F 81 °F (1991)
Min Temperature 33 °F 39 °F 20 °F (1976)
Degree Days  
Heating Degree Days 16    
Moisture  
Dew Point 45 °F    
Average Humidity 82    
Maximum Humidity 100    
Minimum Humidity 49    
Precipitation  
Precipitation 0.00 in - - ()
Sea Level Pressure  
Sea Level Pressure 30.16 in    
Wind  
Wind Speed 1 mph (South)    
Max Wind Speed 8 mph    
Max Gust Speed -    
Visibility 10 miles    
Events      
Averages and records for this station are not official NWS values.
T = Trace of Precipitation, MM = Missing Value Source: NWS Daily Summary

Daily Weather History Graph

Daily Weather History Graph

Search for Another Location

Airport or City:

Trip Planner

Search our weather history database for the weather conditions in past years. The results will help you decide how hot, cold, wet, or windy it might be!

Date:

Astronomy

Dec. 01, 2013 Rise Set
Actual Time 6:43 AM CST 4:57 PM CST
Civil Twilight 6:17 AM CST 5:24 PM CST
Nautical Twilight 5:47 AM CST 5:54 PM CST
Astronomical Twilight 5:17 AM CST 6:23 PM CST
Moon 5:06 AM CST (12/1) 4:04 PM CST (12/1)
Length of Visible Light 11h 07m
Length of Day
10h 14m
Waning Crescent, 2% of the Moon is Illuminated
Dec 1
Waning Crescent
Dec 2
New
Dec 9
First Quarter
Dec 17
Full
Dec 25
Last Quarter

Hourly Weather History & Observations

Time (CST) Temp. Dew Point Humidity Pressure Visibility Wind Dir Wind Speed Gust Speed Precip Events Conditions
12:15 AM 35.6 °F 33.8 °F 93% 30.28 in 10.0 mi Calm Calm - N/A   Clear
12:35 AM 33.8 °F 33.8 °F 100% 30.27 in 10.0 mi Calm Calm - N/A   Clear
12:55 AM 33.8 °F 33.8 °F 100% 30.27 in 10.0 mi Calm Calm - N/A   Clear
1:15 AM 35.6 °F 33.8 °F 93% 30.27 in 10.0 mi Calm Calm - N/A   Clear
1:35 AM 33.8 °F 33.8 °F 100% 30.27 in 10.0 mi Calm Calm - N/A   Clear
1:55 AM 33.8 °F 33.8 °F 100% 30.27 in 9.0 mi Calm Calm - N/A   Clear
2:15 AM 33.8 °F 33.8 °F 100% 30.27 in 10.0 mi Calm Calm - N/A   Clear
2:35 AM 33.8 °F 33.8 °F 100% 30.26 in 9.0 mi Calm Calm - N/A   Clear
2:55 AM 33.8 °F 32.0 °F 93% 30.26 in 10.0 mi Calm Calm - N/A   Clear
3:15 AM 33.8 °F 32.0 °F 93% 30.26 in 9.0 mi Calm Calm - N/A   Clear
3:35 AM 33.8 °F 33.8 °F 100% 30.26 in 10.0 mi Calm Calm - N/A   Clear
3:55 AM 33.8 °F 33.8 °F 100% 30.26 in 10.0 mi Calm Calm - N/A   Clear
4:15 AM 33.8 °F 33.8 °F 100% 30.26 in 9.0 mi Calm Calm - N/A   Clear
4:35 AM 33.8 °F 33.8 °F 100% 30.26 in 10.0 mi Calm Calm - N/A   Clear
4:55 AM 33.8 °F 33.8 °F 100% 30.26 in 10.0 mi Calm Calm - N/A   Clear
5:15 AM 35.6 °F 33.8 °F 93% 30.26 in 10.0 mi Calm Calm - N/A   Clear
5:35 AM 35.6 °F 33.8 °F 93% 30.25 in 10.0 mi Calm Calm - N/A   Clear
5:55 AM 35.6 °F 35.6 °F 100% 30.26 in 10.0 mi Calm Calm - N/A   Clear
6:15 AM 35.6 °F 35.6 °F 100% 30.27 in 10.0 mi Calm Calm - N/A   Clear
6:35 AM 35.6 °F 35.6 °F 100% 30.26 in 10.0 mi Calm Calm - N/A   Clear
6:55 AM 35.6 °F 35.6 °F 100% 30.25 in 8.0 mi Calm Calm - N/A   Clear
7:15 AM 35.6 °F 35.6 °F 100% 30.26 in 9.0 mi Calm Calm - N/A   Clear
7:35 AM 37.4 °F 37.4 °F 100% 30.25 in 9.0 mi Calm Calm - N/A   Clear
7:55 AM 44.6 °F 42.8 °F 93% 30.25 in 10.0 mi Calm Calm - N/A   Clear
8:15 AM 46.4 °F 42.8 °F 87% 30.24 in 10.0 mi Calm Calm - N/A   Clear
8:35 AM 48.2 °F 42.8 °F 82% 30.25 in 8.0 mi South 3.5 mph - N/A   Clear
8:55 AM 51.8 °F 44.6 °F 76% 30.23 in 8.0 mi South 3.5 mph - N/A   Clear
9:15 AM 53.6 °F 44.6 °F 72% 30.23 in 9.0 mi South 3.5 mph - N/A   Clear
9:35 AM 57.2 °F 44.6 °F 63% 30.24 in 8.0 mi SSW 5.8 mph - N/A   Clear
9:55 AM 60.8 °F 42.8 °F 52% 30.24 in 9.0 mi SSW 5.8 mph - N/A   Clear
10:15 AM 62.6 °F 44.6 °F 52% 30.23 in 10.0 mi SSW 5.8 mph - N/A   Clear
10:35 AM 62.6 °F 44.6 °F 52% 30.22 in 10.0 mi SW 4.6 mph - N/A   Clear
10:55 AM 62.6 °F 46.4 °F 55% 30.22 in 9.0 mi SSW 4.6 mph - N/A   Clear
11:15 AM 62.6 °F 44.6 °F 52% 30.21 in 10.0 mi South 3.5 mph - N/A   Scattered Clouds
11:35 AM 62.6 °F 46.4 °F 55% 30.19 in 9.0 mi Calm Calm - N/A   Partly Cloudy
11:55 AM 64.4 °F 46.4 °F 52% 30.18 in 10.0 mi Calm Calm - N/A   Clear
12:15 PM 64.4 °F 46.4 °F 52% 30.17 in 9.0 mi Calm Calm - N/A   Mostly Cloudy
12:35 PM 64.4 °F 46.4 °F 52% 30.16 in 10.0 mi Calm Calm - N/A   Overcast
12:55 PM 66.2 °F 46.4 °F 49% 30.15 in 10.0 mi Calm Calm - N/A   Overcast
1:15 PM 66.2 °F 46.4 °F 49% 30.14 in 10.0 mi Calm Calm - N/A   Overcast
1:35 PM 66.2 °F 46.4 °F 49% 30.12 in 10.0 mi South 4.6 mph - N/A   Mostly Cloudy
1:55 PM 66.2 °F 48.2 °F 52% 30.12 in 10.0 mi Calm Calm - N/A   Mostly Cloudy
2:15 PM 66.2 °F 48.2 °F 52% 30.11 in 10.0 mi Calm Calm - N/A   Mostly Cloudy
2:35 PM 66.2 °F 48.2 °F 52% 30.10 in 10.0 mi Calm Calm - N/A   Scattered Clouds
2:55 PM 66.2 °F 48.2 °F 52% 30.09 in 10.0 mi Calm Calm - N/A   Mostly Cloudy
3:15 PM 66.2 °F 48.2 °F 52% 30.09 in 10.0 mi Calm Calm - N/A   Mostly Cloudy
3:35 PM 64.4 °F 53.6 °F 68% 30.09 in 10.0 mi Calm Calm - N/A   Mostly Cloudy
3:55 PM 62.6 °F 51.8 °F 68% 30.09 in 10.0 mi Calm Calm - N/A   Partly Cloudy
4:15 PM 62.6 °F 51.8 °F 68% 30.08 in 10.0 mi Calm Calm - N/A   Clear
4:35 PM 60.8 °F 53.6 °F 77% 30.08 in 10.0 mi Calm Calm - N/A   Clear
4:55 PM 59.0 °F 53.6 °F 82% 30.07 in 9.0 mi Calm Calm - N/A   Clear
5:15 PM 57.2 °F 55.4 °F 94% 30.07 in 10.0 mi Calm Calm - N/A   Partly Cloudy
5:35 PM 55.4 °F 53.6 °F 94% 30.07 in 10.0 mi Calm Calm - N/A   Scattered Clouds
5:55 PM 55.4 °F 53.6 °F 94% 30.07 in 10.0 mi Calm Calm - N/A   Partly Cloudy
6:15 PM 55.4 °F 53.6 °F 94% 30.06 in 10.0 mi Calm Calm - N/A   Clear
6:35 PM 55.4 °F 53.6 °F 94% 30.06 in 10.0 mi Calm Calm - N/A   Clear
6:55 PM 53.6 °F 53.6 °F 100% 30.06 in 10.0 mi Calm Calm - N/A   Clear
7:15 PM 53.6 °F 53.6 °F 100% 30.05 in 9.0 mi Calm Calm - N/A   Clear
7:35 PM 53.6 °F 53.6 °F 100% 30.06 in 10.0 mi Calm Calm - N/A   Clear
7:55 PM 53.6 °F 53.6 °F 100% 30.06 in 9.0 mi Calm Calm - N/A   Clear
8:15 PM 53.6 °F 51.8 °F 94% 30.06 in 10.0 mi Calm Calm - N/A   Partly Cloudy
8:35 PM 53.6 °F 51.8 °F 94% 30.05 in 10.0 mi Calm Calm - N/A   Scattered Clouds
8:55 PM 53.6 °F 51.8 °F 94% 30.05 in 9.0 mi Calm Calm - N/A   Mostly Cloudy
9:15 PM 53.6 °F 51.8 °F 94% 30.03 in 10.0 mi Calm Calm - N/A   Partly Cloudy
9:35 PM 53.6 °F 51.8 °F 94% 30.02 in 9.0 mi Calm Calm - N/A   Clear
9:55 PM 55.4 °F 51.8 °F 88% 30.03 in 10.0 mi Calm Calm - N/A   Clear
10:15 PM 55.4 °F 51.8 °F 88% 30.03 in 10.0 mi Calm Calm - N/A   Scattered Clouds
10:35 PM 55.4 °F 51.8 °F 88% 30.04 in 10.0 mi Calm Calm - N/A   Mostly Cloudy
10:55 PM 55.4 °F 51.8 °F 88% 30.04 in 10.0 mi Calm Calm - N/A   Mostly Cloudy
11:15 PM 55.4 °F 51.8 °F 88% 30.04 in 10.0 mi South 4.6 mph - N/A   Overcast
11:35 PM 55.4 °F 51.8 °F 88% 30.02 in 10.0 mi South 8.1 mph - N/A   Overcast
11:55 PM 55.4 °F 51.8 °F 88% 30.02 in 10.0 mi South 3.5 mph - N/A   Overcast